DW2180 Weather Reports


time (UTC)temp
C
wind
direction
speed
KPH
gust
KPH
rain 1hr
cm
rain 24hr
cm
rain mn
cm
humidity
%
barometer
mb
20260505193949 27 163 11.3 22.5 0.00 0.00 0.00 35 1007.8
20260505192940 27 221 4.8 17.7 0.00 0.00 0.00 36 1007.6
20260505185939 28 192 9.7 19.3 0.00 0.00 0.00 35 1007.8
20260505182954 27 283 8.0 25.7 0.00 0.00 0.00 36 1008.3
20260505181944 27 229 8.0 19.3 0.00 0.00 0.00 35 1008.5
20260505180954 28 200 11.3 20.9 0.00 0.00 0.00 34 1008.7
20260505175944 27 209 9.7 19.3 0.00 0.00 0.00 39 1008.6
20260505173945 27 242 9.7 14.5 0.00 0.00 0.00 42 1008.9
20260505172939 27 192 4.8 16.1 0.00 0.00 0.00 45 1008.9
20260505171949 27 214 6.4 17.7 0.00 0.00 0.00 44 1008.9
20260505170939 27 173 4.8 11.3 0.00 0.00 0.00 45 1009.1
20260505164939 26 210 6.4 14.5 0.00 0.00 0.00 46 1009.4
20260505162939 26 228 3.2 9.7 0.00 0.00 0.00 50 1009.5
20260505161949 26 246 4.8 16.1 0.00 0.00 0.00 47 1009.7
20260505160938 25 200 3.2 9.7 0.00 0.00 0.00 49 1010.0
20260505151953 23 179 6.4 9.7 0.00 0.00 0.00 56 1010.3
20260505150944 23 216 4.8 9.7 0.00 0.00 0.00 56 1010.4
20260505124935 17 191 1.6 9.7 0.00 0.00 0.00 73 1011.0
20260505123945 17 202 4.8 14.5 0.00 0.00 0.00 74 1011.1
20260505122939 16 185 3.2 8.0 0.00 0.00 0.00 79 1011.0
20260505121949 16 213 4.8 6.4 0.00 0.00 0.00 84 1010.8
20260505120940 15 185 3.2 6.4 0.00 0.00 0.00 89 1010.8
20260505115950 13 201 0.0 0.0 0.00 0.00 0.00 94 1010.7
20260505114940 12 38 0.0 0.0 0.00 0.00 0.00 95 1010.9
20260505111934 10 38 0.0 0.0 0.00 0.00 0.00 95 1011.2
20260505110944 10 38 0.0 0.0 0.00 0.00 0.00 94 1010.9
20260505101938 10 56 0.0 0.0 0.00 0.00 0.00 94 1010.5
20260505095937 9 56 0.0 3.2 0.00 0.00 0.00 95 1010.8
20260505094947 8 56 0.0 3.2 0.00 0.00 0.00 94 1010.8
20260505093937 8 310 0.0 0.0 0.00 0.00 0.00 93 1010.8
20260505092945 8 310 0.0 0.0 0.00 0.00 0.00 93 1010.7
20260505090951 8 310 1.6 4.8 0.00 0.00 0.00 94 1010.2
20260505085941 8 29 0.0 0.0 0.00 0.00 0.00 93 1010.3
20260505081948 7 29 0.0 0.0 0.00 0.00 0.00 92 1010.3
20260505080938 8 29 0.0 0.0 0.00 0.00 0.00 93 1010.0
20260505075948 8 29 0.0 0.0 0.00 0.00 0.00 93 1010.0
20260505074938 8 29 0.0 0.0 0.00 0.00 0.00 93 1010.0
20260505073933 8 29 0.0 0.0 0.00 0.00 0.00 93 1009.9
20260505071937 8 29 0.0 0.0 0.00 0.00 0.00 93 1010.0
20260505070947 7 29 0.0 0.0 0.00 0.00 0.00 93 1010.0
20260505065937 7 29 0.0 0.0 0.00 0.00 0.00 93 1010.0
20260505064944 7 29 0.0 0.0 0.00 0.00 0.00 92 1010.1
20260505063934 7 29 0.0 0.0 0.00 0.00 0.00 92 1010.1
20260505062944 7 29 0.0 0.0 0.00 0.00 0.00 91 1010.1
20260505061934 7 29 0.0 0.0 0.00 0.00 0.00 92 1010.1
20260505060944 7 29 0.0 0.0 0.00 0.00 0.00 92 1010.2
20260505055938 7 331 0.0 0.0 0.00 0.00 0.00 91 1010.3
20260505053940 7 331 0.0 0.0 0.00 0.00 0.00 91 1010.2
20260505052951 7 331 0.0 0.0 0.00 0.00 0.00 91 1010.3
20260505051940 7 331 0.0 0.0 0.00 0.00 0.00 90 1010.2
20260505040935 8 33 0.0 0.0 0.00 0.00 0.00 88 1010.4
20260505035943 8 33 0.0 0.0 0.00 0.00 0.00 88 1010.3
20260505034932 8 33 0.0 0.0 0.00 0.00 0.00 88 1010.3
20260505032933 9 33 0.0 1.6 0.00 0.00 0.00 88 1010.4
20260505031944 9 33 0.0 0.0 0.00 0.00 0.00 86 1010.5
20260505030933 9 33 0.0 0.0 0.00 0.00 0.00 86 1010.5
20260505025942 9 33 0.0 1.6 0.00 0.00 0.00 85 1010.4
20260505024934 10 33 0.0 1.6 0.00 0.00 0.00 85 1010.5
20260505023944 10 33 0.0 3.2 0.00 0.00 0.00 84 1010.5
20260505022933 10 33 1.6 3.2 0.00 0.00 0.00 83 1010.4
20260505020935 11 77 0.0 0.0 0.00 0.00 0.00 80 1010.5
20260505015945 11 77 0.0 0.0 0.00 0.00 0.00 78 1010.5
20260505012938 13 77 0.0 0.0 0.00 0.00 0.00 71 1010.4
20260505011948 13 77 0.0 0.0 0.00 0.00 0.00 67 1010.4
20260505010943 14 77 0.0 0.0 0.00 0.00 0.00 65 1010.2
20260505004945 16 77 0.0 3.2 0.00 0.00 0.00 58 1009.8
20260505003936 17 175 0.0 1.6 0.00 0.00 0.00 54 1009.9
20260505002945 17 175 0.0 1.6 0.00 0.00 0.00 51 1009.7
20260505001933 18 175 0.0 9.7 0.00 0.00 0.00 49 1009.5
20260505000943 18 99 1.6 6.4 0.00 0.00 0.00 48 1009.4
20260504235933 18 222 1.6 6.4 0.00 0.00 0.00 47 1009.3
20260504234941 18 136 3.2 6.4 0.00 0.00 0.00 47 1009.2
20260504233934 19 196 1.6 6.4 0.00 0.00 0.00 47 1009.0
20260504232944 20 201 4.8 11.3 0.00 0.00 0.00 45 1008.9
20260504231933 20 179 3.2 6.4 0.00 0.00 0.00 45 1008.9
20260504230942 20 199 4.8 9.7 0.00 0.00 0.00 45 1008.7
20260504225931 20 214 3.2 6.4 0.00 0.00 0.00 45 1008.6
20260504224940 21 177 3.2 9.7 0.00 0.00 0.00 43 1008.5
20260504223950 21 212 1.6 8.0 0.00 0.00 0.00 43 1008.4
20260504222939 21 265 4.8 11.3 0.00 0.00 0.00 41 1008.6
20260504221948 21 188 6.4 11.3 0.00 0.00 0.00 41 1008.7
20260504220942 21 211 6.4 11.3 0.00 0.00 0.00 40 1008.7
20260504215931 22 265 1.6 11.3 0.00 0.00 0.00 39 1008.7
20260504214941 22 257 3.2 9.7 0.00 0.00 0.00 39 1008.8
20260504213931 22 208 4.8 11.3 0.00 0.00 0.00 41 1008.8
20260504212940 22 204 3.2 11.3 0.00 0.00 0.00 39 1009.0
20260504211930 22 221 8.0 14.5 0.00 0.00 0.00 39 1009.0
20260504210942 22 265 6.4 16.1 0.00 0.00 0.00 37 1009.0
20260504205932 22 211 4.8 12.9 0.00 0.00 0.00 40 1009.1
20260504204942 22 183 6.4 11.3 0.00 0.00 0.00 38 1009.1
20260504203936 22 243 6.4 14.5 0.00 0.00 0.00 38 1009.0
20260504201938 22 265 6.4 11.3 0.00 0.00 0.00 35 1009.2
20260504200949 22 312 1.6 12.9 0.00 0.00 0.00 38 1009.3
20260504195938 22 182 4.8 11.3 0.00 0.00 0.00 39 1009.3
20260504194946 22 203 4.8 12.9 0.00 0.00 0.00 38 1009.5